sat.trackr.live / text

‹ back to catalog

STARLINK-6365

NORAD 57237 · 2023-094V

PAYLOAD ACTIVE UNKNOWN

§ Identity

Operator
Country
US
Launch date
2023-07-07
Launch site
AFWTR
Launch vehicle
Mass (kg)
RCS (m²)

Purposes: comms

External: N2YO · Heavens-Above · Gunter

§ Orbital elements

Epoch: 2026-05-25T04:02:08.102976Z

Period
94.27 min
Inclination
43.0020°
Eccentricity
0.0001210
Mean motion
15.27564168 rev/d
Perigee alt
482.3 km
Apogee alt
483.9 km
Semi-major
6,861.2 km
B*
-3.5029e-5
RAAN
318.6559°
Arg perigee
267.4933°
Mean anomaly
92.5780°
Rev number
15,881

§ Raw data

STARLINK-63651 57237U 23094V   26145.16814934 -.00001225  00000+0 -35029-4 0  99902 57237  43.0020 318.6559 0001210 267.4933  92.5780 15.27564168158819

JSON: /api/v1/satellites/57237 · /tle

For live sub-satellite position, see the globe view (requires WebGL).

§ Visibility from observer

Set your observer location to see the next 7 days of passes ≥ 10°. The values pass through the URL so the page stays shareable.

No JS? Fill the form by hand. The geolocation button needs JavaScript.